Burns, OR

6:31 AM PDT on September 21, 2017 (GMT -0700)
Burns Municipal

Weather History for KBNO - March, 2013

Change the Weather History Date:

Saturday, March 16, 2013

  Actual Average Record
Temperature  
Mean Temperature 37 °F 38 °F  
Max Temperature 51 °F 50 °F 73 °F (1947)
Min Temperature 23 °F 26 °F 12 °F (1991)
Degree Days  
Heating Degree Days 28 27  
Month to date heating degree days 432 473  
Since 1 July heating degree days 5789 6001  
Cooling Degree Days 0 0  
Month to date cooling degree days 0 0  
Year to date cooling degree days 0 0  
Moisture  
Dew Point 27 °F    
Average Humidity 63    
Maximum Humidity 92    
Minimum Humidity 34    
Precipitation  
Precipitation T in 0.04 in 0.36 in (1993)
Month to date precipitation T 0.59  
Year to date precipitation 0.74 2.80  
Sea Level Pressure  
Sea Level Pressure 30.03 in    
Wind  
Wind Speed 9 mph (WSW)    
Max Wind Speed 28 mph    
Max Gust Speed 33 mph    
Visibility 10 miles    
Events      
T = Trace of Precipitation, MM = Missing Value Source: NWS Daily Summary

Daily Weather History Graph

Daily Weather History Graph

Search for Another Location

Airport or City:

Trip Planner

Search our weather history database for the weather conditions in past years. The results will help you decide how hot, cold, wet, or windy it might be!

Date:

Astronomy

Mar. 16, 2013 Rise Set
Actual Time 7:05 AM PDT 7:03 PM PDT
Civil Twilight 6:37 AM PDT 7:32 PM PDT
Nautical Twilight 6:03 AM PDT 8:05 PM PDT
Astronomical Twilight 5:29 AM PDT 8:39 PM PDT
Moon 9:29 AM PDT (3/16) No Moon Set
Length of Visible Light 12h 55m
Length of Day
11h 58m
Waxing Crescent, 24% of the Moon is Illuminated
Mar 16
Waxing Crescent
Mar 19
First Quarter
Mar 27
Full
Apr 2
Last Quarter
Apr 10
New

Hourly Weather History & Observations

Time (PDT) Temp. Windchill Dew Point Humidity Pressure Visibility Wind Dir Wind Speed Gust Speed Precip Events Conditions
12:53 AM 34.0 °F 28.0 °F 27.0 °F 75% 30.12 in 10.0 mi West 6.9 mph - N/A   Mostly Cloudy
1:53 AM 34.0 °F 25.5 °F 27.0 °F 75% 30.12 in 10.0 mi WNW 11.5 mph - N/A   Clear
2:53 AM 32.0 °F 25.6 °F 26.1 °F 79% 30.11 in 10.0 mi West 6.9 mph - N/A   Clear
3:53 AM 32.0 °F - 26.1 °F 79% 30.09 in 10.0 mi Calm Calm - N/A   Clear
4:53 AM 24.1 °F 19.7 °F 21.9 °F 91% 30.12 in 10.0 mi ESE 3.5 mph - N/A   Clear
5:53 AM 24.1 °F - 23.0 °F 96% 30.11 in 10.0 mi Calm Calm - N/A   Clear
6:53 AM 24.1 °F 19.7 °F 21.0 °F 88% 30.12 in 10.0 mi NNE 3.5 mph - N/A   Clear
7:53 AM 28.9 °F - 26.1 °F 89% 30.13 in 10.0 mi Calm Calm - N/A   Clear
8:53 AM 34.0 °F 31.0 °F 28.0 °F 79% 30.12 in 10.0 mi NE 3.5 mph - N/A   Clear
9:53 AM 39.0 °F - 28.9 °F 67% 30.12 in 10.0 mi Calm Calm - N/A   Clear
10:53 AM 44.1 °F 40.8 °F 32.0 °F 63% 30.08 in 10.0 mi Variable 5.8 mph - N/A   Clear
11:53 AM 48.9 °F - 30.0 °F 48% 30.05 in 10.0 mi SSW 11.5 mph 17.3 mph N/A   Partly Cloudy
12:53 PM 48.9 °F - 28.0 °F 44% 30.03 in 10.0 mi WSW 11.5 mph - N/A   Clear
1:53 PM 48.0 °F - 28.9 °F 48% 30.00 in 10.0 mi SW 13.8 mph - N/A   Overcast
2:53 PM 48.0 °F - 26.1 °F 42% 29.97 in 10.0 mi West 13.8 mph - N/A   Overcast
3:53 PM 48.9 °F - 21.9 °F 35% 29.93 in 10.0 mi WSW 9.2 mph - N/A   Overcast
4:53 PM 48.9 °F - 24.1 °F 38% 29.94 in 10.0 mi SW 15.0 mph 20.7 mph N/A   Overcast
5:53 PM 45.0 °F 38.5 °F 32.0 °F 60% 29.94 in 10.0 mi West 13.8 mph - 0.00 in   Overcast
6:53 PM 39.9 °F 33.9 °F 34.0 °F 79% 29.97 in 10.0 mi WSW 9.2 mph - 0.00 in   Overcast
7:53 PM 35.1 °F 29.3 °F 30.9 °F 85% 29.97 in 10.0 mi WSW 6.9 mph - N/A   Clear
8:53 PM 37.0 °F 28.9 °F 28.0 °F 70% 29.95 in 10.0 mi WSW 12.7 mph - N/A   Clear
9:53 PM 37.0 °F 27.4 °F 26.1 °F 65% 29.94 in 10.0 mi WSW 17.3 mph - N/A   Partly Cloudy
10:53 PM 37.9 °F 28.2 °F 26.1 °F 62% 29.92 in 10.0 mi SW 18.4 mph 27.6 mph N/A   Mostly Cloudy
11:53 PM 37.0 °F 28.5 °F 27.0 °F 67% 29.93 in 10.0 mi WSW 13.8 mph 24.2 mph N/A   Overcast